This is the latest recevied weather packets stored in our database for station/object S59MA-6. If no packets are shown the sender has not sent any weather packets the latest 1 day(s).
| Time | Temp. | Humidity | Pressure | Rain* | Wind** | Luminosity | Snow |
|---|---|---|---|---|---|---|---|
| 1778047237 | 14.44° C | 86% | 1000.4 hPa | 0 mm | - | - | - |
| 1778046936 | 14.44° C | 86% | 1000.3 hPa | 0 mm | - | - | - |
| 1778045737 | 13.33° C | 86% | 1000.1 hPa | 0 mm | - | - | - |
| 1778045436 | 13.33° C | 86% | 1000.5 hPa | 0 mm | - | - | - |
| 1778045137 | 13.33° C | 87% | 1000.5 hPa | 0 mm | - | - | - |
| 1778044236 | 12.22° C | 86% | 1000.4 hPa | 0 mm | - | - | - |
| 1778043936 | 11.67° C | 87% | 1000.3 hPa | 0 mm | - | - | - |
| 1778043339 | 10.56° C | 86% | 1000.4 hPa | 0 mm | - | - | - |
| 1778043036 | 10.56° C | 86% | 1000.4 hPa | 0 mm | - | - | - |
| 1778042736 | 10.56° C | 86% | 1000.4 hPa | 0 mm | - | - | - |
| 1778042139 | 10.56° C | 86% | 1000.4 hPa | 0 mm | - | - | - |
| 1778041537 | 11.11° C | 86% | 1000.3 hPa | 0 mm | - | - | - |
| 1778040638 | 11.11° C | 85% | 1000.4 hPa | 0 mm | - | - | - |
| 1778040038 | 11.11° C | 85% | 1000.5 hPa | 0 mm | - | - | - |
| 1778039436 | 11.11° C | 85% | 1000.5 hPa | 0 mm | - | - | - |
| 1778038839 | 11.11° C | 85% | 1000.4 hPa | 0 mm | - | - | - |
| 1778036739 | 11.67° C | 84% | 1000.4 hPa | 0 mm | - | - | - |
| 1778034639 | 12.78° C | 84% | 1000.8 hPa | 0 mm | - | - | - |
| 1778033439 | 12.78° C | 84% | 1000.8 hPa | 0 mm | - | - | - |
| 1778033138 | 12.78° C | 84% | 1000.8 hPa | 0 mm | - | - | - |
| 1778032838 | 12.78° C | 83% | 1000.8 hPa | 0 mm | - | - | - |
| 1778032537 | 12.78° C | 83% | 1000.8 hPa | 0 mm | - | - | - |
| 1778032237 | 12.78° C | 83% | 1000.7 hPa | 0 mm | - | - | - |
| 1778031937 | 12.78° C | 83% | 1000.8 hPa | 0 mm | - | - | - |
| 1778031108 | 13.33° C | 83% | 1000.6 hPa | 0 mm | - | - | - |
* Rain latest hour (hover to see other rain measurements)
** Current wind speed in m/s (hover to see current wind gust speed)